TimeEDT,TemperatureF,Dew PointF,Humidity,Sea Level PressureIn,VisibilityMPH,Wind Direction,Wind SpeedMPH,Gust SpeedMPH,PrecipitationIn,Events,Conditions,WindDirDegrees,DateUTC
12:15 AM,37.2,36.5,97,30.40,10.0,Calm,Calm,-,N/A,,Clear,0,2013-09-17 04:15:00
12:35 AM,37.4,36.7,97,30.40,10.0,Calm,Calm,-,N/A,,Clear,0,2013-09-17 04:35:00
12:55 AM,37.0,36.5,98,30.40,10.0,Calm,Calm,-,N/A,,Clear,0,2013-09-17 04:55:00
1:15 AM,37.6,36.9,97,30.40,10.0,Calm,Calm,-,N/A,,Clear,0,2013-09-17 05:15:00
1:35 AM,36.9,36.5,99,30.40,10.0,Calm,Calm,-,N/A,,Clear,0,2013-09-17 05:35:00
1:55 AM,37.0,36.5,98,30.40,10.0,Calm,Calm,-,N/A,,Clear,0,2013-09-17 05:55:00
2:15 AM,36.5,35.8,97,30.40,10.0,Calm,Calm,-,N/A,,Clear,0,2013-09-17 06:15:00
2:35 AM,36.7,36.3,99,30.40,10.0,Calm,Calm,-,N/A,,Clear,0,2013-09-17 06:35:00
2:55 AM,37.0,36.7,99,30.40,10.0,Calm,Calm,-,N/A,,Clear,0,2013-09-17 06:55:00
3:15 AM,36.9,36.5,99,30.40,10.0,Calm,Calm,-,N/A,,Clear,0,2013-09-17 07:15:00
3:35 AM,36.0,35.6,99,30.40,10.0,Calm,Calm,-,N/A,,Clear,0,2013-09-17 07:35:00
3:55 AM,36.5,36.0,98,30.40,10.0,Calm,Calm,-,N/A,,Clear,0,2013-09-17 07:55:00
4:15 AM,37.2,36.9,99,30.40,10.0,Calm,Calm,-,N/A,,Clear,0,2013-09-17 08:15:00
4:35 AM,36.7,36.5,99,30.40,10.0,Calm,Calm,-,N/A,,Clear,0,2013-09-17 08:35:00
4:55 AM,37.2,37.0,99,30.40,10.0,Calm,Calm,-,N/A,,Clear,0,2013-09-17 08:55:00
5:15 AM,36.7,36.5,99,30.40,10.0,Calm,Calm,-,N/A,,Clear,0,2013-09-17 09:15:00
5:35 AM,36.7,36.7,100,30.40,7.0,Calm,Calm,-,N/A,,Clear,0,2013-09-17 09:35:00
5:55 AM,37.0,37.0,100,30.40,10.0,Calm,Calm,-,N/A,,Clear,0,2013-09-17 09:55:00
6:15 AM,37.6,37.6,100,30.41,10.0,Calm,Calm,-,N/A,,Clear,0,2013-09-17 10:15:00
6:35 AM,37.9,37.9,100,30.41,10.0,Calm,Calm,-,N/A,,Clear,0,2013-09-17 10:35:00
6:55 AM,37.6,37.6,100,30.41,1.0,Calm,Calm,-,N/A,,Mist,0,2013-09-17 10:55:00
7:15 AM,36.7,36.7,100,30.41,10.0,Calm,Calm,-,N/A,,Clear,0,2013-09-17 11:15:00
7:35 AM,37.2,37.2,100,30.41,10.0,Calm,Calm,-,N/A,,Clear,0,2013-09-17 11:35:00
7:55 AM,36.7,36.7,100,30.41,10.0,Calm,Calm,-,N/A,,Clear,0,2013-09-17 11:55:00
8:15 AM,38.3,38.3,100,30.41,10.0,Calm,Calm,-,N/A,,Clear,0,2013-09-17 12:15:00
8:35 AM,42.6,42.6,100,30.41,10.0,SSW,3.5,-,N/A,,Clear,200,2013-09-17 12:35:00
8:55 AM,48.7,45.9,90,30.41,10.0,South,3.5,-,N/A,,Clear,190,2013-09-17 12:55:00
9:15 AM,50.5,43.0,75,30.41,10.0,South,5.8,-,N/A,,Clear,180,2013-09-17 13:15:00
9:35 AM,51.8,42.1,69,30.41,10.0,SSE,6.9,-,N/A,,Clear,160,2013-09-17 13:35:00
9:55 AM,52.7,41.9,67,30.41,10.0,South,5.8,-,N/A,,Clear,170,2013-09-17 13:55:00
10:15 AM,53.6,40.8,62,30.41,10.0,SSW,8.1,-,N/A,,Clear,200,2013-09-17 14:15:00
10:35 AM,54.0,39.4,58,30.41,10.0,South,5.8,-,N/A,,Clear,180,2013-09-17 14:35:00
10:55 AM,54.1,39.6,58,30.41,10.0,South,5.8,-,N/A,,Clear,170,2013-09-17 14:55:00
11:15 AM,55.4,41.5,60,30.40,10.0,South,5.8,-,N/A,,Clear,190,2013-09-17 15:15:00
11:35 AM,54.9,40.3,58,30.40,10.0,South,6.9,-,N/A,,Clear,180,2013-09-17 15:35:00
11:55 AM,55.9,39.9,55,30.40,10.0,SSW,5.8,-,N/A,,Clear,200,2013-09-17 15:55:00
12:16 PM,56.5,41.0,56,30.39,10.0,South,6.9,-,N/A,,Clear,190,2013-09-17 16:16:00
12:35 PM,56.8,41.2,56,30.39,10.0,South,6.9,-,N/A,,Clear,190,2013-09-17 16:35:00
12:55 PM,57.6,41.7,56,30.39,10.0,SW,4.6,-,N/A,,Clear,220,2013-09-17 16:55:00
1:15 PM,57.7,40.3,52,30.38,10.0,South,6.9,-,N/A,,Clear,190,2013-09-17 17:15:00
1:35 PM,58.1,42.3,56,30.38,10.0,South,3.5,-,N/A,,Clear,170,2013-09-17 17:35:00
1:55 PM,57.7,41.4,54,30.36,10.0,SSE,4.6,-,N/A,,Clear,150,2013-09-17 17:55:00
2:15 PM,58.5,40.5,51,30.35,10.0,SE,6.9,-,N/A,,Clear,130,2013-09-17 18:15:00
2:36 PM,58.5,39.2,49,30.34,10.0,South,6.9,-,N/A,,Clear,180,2013-09-17 18:36:00
2:55 PM,59.0,39.0,48,30.33,10.0,South,6.9,-,N/A,,Clear,180,2013-09-17 18:55:00
3:15 PM,58.5,36.9,45,30.32,10.0,SSE,8.1,-,N/A,,Clear,160,2013-09-17 19:15:00
3:35 PM,59.0,36.9,44,30.31,10.0,SE,5.8,-,N/A,,Clear,130,2013-09-17 19:35:00
3:55 PM,59.5,40.8,50,30.31,10.0,SSE,4.6,-,N/A,,Clear,160,2013-09-17 19:55:00
4:15 PM,59.4,41.4,51,30.29,10.0,SSE,6.9,-,N/A,,Clear,150,2013-09-17 20:15:00
4:35 PM,58.6,42.4,55,30.28,10.0,ESE,5.8,-,N/A,,Clear,120,2013-09-17 20:35:00
4:55 PM,58.6,44.2,59,30.28,10.0,SE,3.5,-,N/A,,Clear,140,2013-09-17 20:55:00
5:15 PM,58.5,46.2,64,30.27,10.0,SE,5.8,-,N/A,,Clear,140,2013-09-17 21:15:00
5:35 PM,57.6,46.6,67,30.27,10.0,SSE,5.8,-,N/A,,Clear,150,2013-09-17 21:35:00
5:55 PM,57.2,46.0,66,30.26,10.0,SE,6.9,-,N/A,,Clear,140,2013-09-17 21:55:00
6:15 PM,56.5,46.4,69,30.26,10.0,SE,8.1,-,N/A,,Clear,140,2013-09-17 22:15:00
6:35 PM,55.9,47.1,72,30.26,10.0,SSE,8.1,-,N/A,,Clear,150,2013-09-17 22:35:00
6:55 PM,55.4,47.3,74,30.25,10.0,SE,5.8,-,N/A,,Clear,130,2013-09-17 22:55:00
7:15 PM,54.7,47.7,77,30.24,10.0,SE,4.6,-,N/A,,Clear,130,2013-09-17 23:15:00
7:35 PM,53.8,48.2,81,30.23,10.0,ESE,4.6,-,N/A,,Clear,120,2013-09-17 23:35:00
7:55 PM,52.5,48.2,85,30.23,10.0,SE,3.5,-,N/A,,Clear,130,2013-09-17 23:55:00
8:16 PM,51.8,48.9,90,30.22,10.0,ESE,3.5,-,N/A,,Clear,110,2013-09-18 00:16:00
8:35 PM,51.1,48.7,92,30.21,10.0,Calm,Calm,-,N/A,,Clear,0,2013-09-18 00:35:00
8:55 PM,50.4,48.4,93,30.21,10.0,Calm,Calm,-,N/A,,Clear,0,2013-09-18 00:55:00
9:15 PM,50.0,48.4,94,30.20,10.0,Calm,Calm,-,N/A,,Clear,0,2013-09-18 01:15:00
9:35 PM,50.0,48.7,95,30.20,10.0,Calm,Calm,-,N/A,,Clear,0,2013-09-18 01:35:00
9:55 PM,51.1,50.2,97,30.20,10.0,Calm,Calm,-,N/A,,Clear,0,2013-09-18 01:55:00
10:15 PM,52.5,52.0,98,30.20,10.0,SSE,4.6,-,N/A,,Clear,160,2013-09-18 02:15:00
10:35 PM,54.5,52.9,94,30.20,10.0,South,4.6,-,N/A,,Clear,170,2013-09-18 02:35:00
10:55 PM,55.4,53.1,92,30.19,10.0,South,8.1,-,N/A,,Clear,180,2013-09-18 02:55:00
11:15 PM,55.2,52.7,91,30.19,10.0,South,6.9,-,N/A,,Clear,180,2013-09-18 03:15:00
11:35 PM,54.7,52.2,91,30.19,10.0,South,6.9,-,N/A,,Clear,180,2013-09-18 03:35:00
11:55 PM,54.5,51.8,91,30.19,10.0,South,6.9,-,N/A,,Clear,180,2013-09-18 03:55:00